| time (UTC) | temp F | wind direction | speed MPH | gust MPH | rain 1hr in | rain 24hr in | rain mn in | humidity % | barometer mb |
| 20260505153103 | 77 | 45 | 2.0 | 10.0 | 0.00 | 0.00 | 0.00 | 43 | 1007.4 |
| 20260505151502 | 78 | 43 | 2.0 | 9.0 | 0.00 | 0.00 | 0.00 | 45 | 1007.5 |
| 20260505124602 | 67 | 172 | 0.0 | 6.0 | 0.00 | 0.00 | 0.00 | 61 | 1008.3 |
| 20260505123115 | 65 | 187 | 1.0 | 6.0 | 0.00 | 0.00 | 0.00 | 61 | 1008.2 |
| 20260505121503 | 63 | 261 | 2.0 | 7.0 | 0.00 | 0.00 | 0.00 | 65 | 1008.4 |
| 20260505114615 | 57 | 128 | 0.0 | 2.0 | 0.00 | 0.00 | 0.00 | 78 | 1008.5 |
| 20260505113002 | 55 | 128 | 0.0 | 2.0 | 0.00 | 0.00 | 0.00 | 81 | 1008.6 |
| 20260505111611 | 54 | 127 | 0.0 | 1.0 | 0.00 | 0.00 | 0.00 | 81 | 1008.6 |
| 20260505101602 | 50 | 205 | 0.0 | 0.0 | 0.00 | 0.00 | 0.00 | 84 | 1007.9 |
| 20260505094602 | 49 | 205 | 0.0 | 0.0 | 0.00 | 0.00 | 0.00 | 83 | 1007.9 |
| 20260505093104 | 50 | 205 | 0.0 | 0.0 | 0.00 | 0.00 | 0.00 | 82 | 1008.1 |
| 20260505091503 | 50 | 205 | 0.0 | 0.0 | 0.00 | 0.00 | 0.00 | 81 | 1008.0 |
| 20260505090104 | 50 | 205 | 0.0 | 0.0 | 0.00 | 0.00 | 0.00 | 81 | 1007.8 |
| 20260505084502 | 51 | 205 | 0.0 | 0.0 | 0.00 | 0.00 | 0.00 | 81 | 1007.8 |
| 20260505083118 | 51 | 205 | 0.0 | 0.0 | 0.00 | 0.00 | 0.00 | 80 | 1008.0 |
| 20260505081603 | 51 | 206 | 0.0 | 0.0 | 0.00 | 0.00 | 0.00 | 80 | 1007.9 |
| 20260505074602 | 51 | 194 | 0.0 | 0.0 | 0.00 | 0.00 | 0.00 | 81 | 1008.0 |
| 20260505073003 | 51 | 194 | 0.0 | 0.0 | 0.00 | 0.00 | 0.00 | 81 | 1008.0 |
| 20260505071605 | 51 | 194 | 0.0 | 0.0 | 0.00 | 0.00 | 0.00 | 80 | 1008.0 |
| 20260505070002 | 51 | 194 | 0.0 | 0.0 | 0.00 | 0.00 | 0.00 | 77 | 1008.2 |
| 20260505064503 | 52 | 194 | 0.0 | 0.0 | 0.00 | 0.00 | 0.00 | 77 | 1008.1 |
| 20260505063103 | 52 | 194 | 0.0 | 0.0 | 0.00 | 0.00 | 0.00 | 75 | 1008.2 |
| 20260505061609 | 53 | 194 | 0.0 | 0.0 | 0.00 | 0.00 | 0.00 | 74 | 1008.3 |
| 20260505060005 | 54 | 194 | 0.0 | 0.0 | 0.00 | 0.00 | 0.00 | 71 | 1008.3 |
| 20260505054503 | 55 | 194 | 0.0 | 2.0 | 0.00 | 0.00 | 0.00 | 68 | 1008.3 |
| 20260505053113 | 55 | 232 | 2.0 | 7.0 | 0.00 | 0.00 | 0.00 | 67 | 1008.5 |
| 20260505051503 | 54 | 235 | 0.0 | 1.0 | 0.00 | 0.00 | 0.00 | 71 | 1008.6 |
| 20260505041502 | 55 | 238 | 0.0 | 3.0 | 0.00 | 0.00 | 0.00 | 66 | 1008.7 |
| 20260505040003 | 55 | 254 | 0.0 | 2.0 | 0.00 | 0.00 | 0.00 | 67 | 1008.6 |
| 20260505034502 | 56 | 256 | 1.0 | 4.0 | 0.00 | 0.00 | 0.00 | 67 | 1008.6 |
| 20260505033103 | 57 | 333 | 0.0 | 2.0 | 0.00 | 0.00 | 0.00 | 64 | 1008.6 |
| 20260505031608 | 58 | 244 | 1.0 | 8.0 | 0.00 | 0.00 | 0.00 | 63 | 1008.8 |
| 20260505030002 | 58 | 246 | 1.0 | 4.0 | 0.00 | 0.00 | 0.00 | 61 | 1008.8 |
| 20260505024603 | 58 | 241 | 1.0 | 4.0 | 0.00 | 0.00 | 0.00 | 60 | 1008.8 |
| 20260505023002 | 58 | 261 | 0.0 | 4.0 | 0.00 | 0.00 | 0.00 | 60 | 1008.8 |
| 20260505021602 | 57 | 200 | 0.0 | 0.0 | 0.00 | 0.00 | 0.00 | 63 | 1008.8 |
| 20260505014603 | 59 | 200 | 0.0 | 3.0 | 0.00 | 0.00 | 0.00 | 58 | 1008.7 |
| 20260505013103 | 59 | 188 | 1.0 | 6.0 | 0.00 | 0.00 | 0.00 | 58 | 1008.5 |
| 20260505011604 | 59 | 311 | 0.0 | 3.0 | 0.00 | 0.00 | 0.00 | 55 | 1008.3 |
| 20260505010003 | 59 | 278 | 1.0 | 2.0 | 0.00 | 0.00 | 0.00 | 57 | 1008.2 |
| 20260505004503 | 60 | 279 | 0.0 | 0.0 | 0.00 | 0.00 | 0.00 | 57 | 1008.1 |
| 20260505003102 | 62 | 279 | 0.0 | 5.0 | 0.00 | 0.00 | 0.00 | 50 | 1007.8 |
| 20260505001502 | 63 | 230 | 1.0 | 4.0 | 0.00 | 0.00 | 0.00 | 48 | 1007.6 |
| 20260505000109 | 63 | 142 | 1.0 | 5.0 | 0.00 | 0.00 | 0.00 | 46 | 1007.4 |
| 20260504234641 | 64 | 227 | 1.0 | 4.0 | 0.00 | 0.00 | 0.00 | 49 | 1007.3 |
| 20260504233104 | 65 | 202 | 1.0 | 3.0 | 0.00 | 0.00 | 0.00 | 44 | 1006.9 |
| 20260504231555 | 66 | 310 | 0.0 | 4.0 | 0.00 | 0.00 | 0.00 | 42 | 1006.9 |
| 20260504224603 | 68 | 271 | 1.0 | 5.0 | 0.00 | 0.00 | 0.00 | 41 | 1006.5 |
| 20260504223003 | 69 | 250 | 2.0 | 6.0 | 0.00 | 0.00 | 0.00 | 36 | 1006.5 |
| 20260504221502 | 70 | 214 | 1.0 | 9.0 | 0.00 | 0.00 | 0.00 | 35 | 1006.5 |
| 20260504214605 | 71 | 182 | 1.0 | 7.0 | 0.00 | 0.00 | 0.00 | 33 | 1006.7 |
| 20260504213007 | 72 | 202 | 2.0 | 7.0 | 0.00 | 0.00 | 0.00 | 33 | 1006.8 |
| 20260504211603 | 72 | 240 | 2.0 | 10.0 | 0.00 | 0.00 | 0.00 | 33 | 1006.9 |
| 20260504210111 | 72 | 170 | 2.0 | 7.0 | 0.00 | 0.00 | 0.00 | 34 | 1007.1 |
| 20260504204502 | 73 | 150 | 3.0 | 10.0 | 0.00 | 0.00 | 0.00 | 32 | 1007.0 |
| 20260504203105 | 71 | 277 | 1.0 | 7.0 | 0.00 | 0.00 | 0.00 | 37 | 1007.1 |
| 20260504201614 | 70 | 259 | 2.0 | 9.0 | 0.00 | 0.00 | 0.00 | 39 | 1007.3 |
| 20260504200003 | 70 | 147 | 1.0 | 5.0 | 0.00 | 0.00 | 0.00 | 38 | 1007.4 |
| 20260504194612 | 69 | 202 | 2.0 | 8.0 | 0.00 | 0.00 | 0.00 | 39 | 1007.6 |
| 20260504193013 | 69 | 276 | 1.0 | 9.0 | 0.00 | 0.00 | 0.00 | 38 | 1007.7 |
| 20260504191603 | 70 | 219 | 1.0 | 9.0 | 0.00 | 0.00 | 0.00 | 37 | 1007.9 |
| 20260504190130 | 68 | 134 | 3.0 | 12.0 | 0.00 | 0.00 | 0.00 | 38 | 1007.8 |
| 20260504184602 | 69 | 219 | 3.0 | 9.0 | 0.00 | 0.00 | 0.00 | 36 | 1007.9 |
| 20260504183003 | 69 | 191 | 3.0 | 11.0 | 0.00 | 0.00 | 0.00 | 35 | 1008.2 |
| 20260504181503 | 70 | 237 | 2.0 | 8.0 | 0.00 | 0.00 | 0.00 | 39 | 1008.3 |
| 20260504180208 | 69 | 248 | 1.0 | 9.0 | 0.00 | 0.00 | 0.00 | 36 | 1008.4 |
| 20260504174503 | 68 | 165 | 2.0 | 12.0 | 0.00 | 0.00 | 0.00 | 38 | 1008.7 |
| 20260504173130 | 67 | 194 | 3.0 | 11.0 | 0.00 | 0.00 | 0.00 | 37 | 1008.8 |
| 20260504171603 | 67 | 219 | 2.0 | 5.0 | 0.00 | 0.00 | 0.00 | 38 | 1009.0 |
| 20260504170104 | 68 | 247 | 3.0 | 12.0 | 0.00 | 0.00 | 0.00 | 38 | 1009.2 |